timestamp,wind_dir_avg,wind_spd_avg,wind_spd_max_dir,wind_spd_gust,battery_voltage,lat,long
2022-03-26 00:04:01+00:00,121.0,1.55,107.0,8.22,12.41,47.59359,-54.27349
2022-03-26 00:14:01+00:00,87.0,1.15,80.0,8.06,12.41,47.59359,-54.27349
2022-03-26 00:24:01+00:00,97.0,2.5,90.0,8.86,12.41,47.59359,-54.27349
2022-03-26 00:34:01+00:00,104.0,1.83,89.0,8.79,12.41,47.59359,-54.27349
2022-03-26 00:44:01+00:00,98.0,3.38,98.0,9.71,12.41,47.59359,-54.27349
2022-03-26 00:54:01+00:00,128.0,3.01,112.0,8.52,12.41,47.59359,-54.27349
2022-03-26 01:04:01+00:00,110.0,4.48,101.0,10.43,12.41,47.59359,-54.27349
2022-03-26 01:14:01+00:00,109.0,2.95,113.0,10.47,12.41,47.59359,-54.27349
2022-03-26 01:24:01+00:00,97.0,2.99,86.0,9.1,12.41,47.59359,-54.27349
2022-03-26 01:34:01+00:00,106.0,2.75,124.0,9.55,12.41,47.59359,-54.27349
2022-03-26 01:44:01+00:00,88.0,3.49,94.0,9.44,12.41,47.59359,-54.27349
2022-03-26 01:54:01+00:00,94.0,5.11,81.0,9.52,12.41,47.59359,-54.27349
2022-03-26 02:04:01+00:00,111.0,8.24,109.0,9.99,12.41,47.59359,-54.27349
2022-03-26 02:14:01+00:00,106.0,3.27,93.0,9.17,12.33,47.59359,-54.27349
2022-03-26 02:24:01+00:00,97.0,4.54,91.0,9.73,12.33,47.59359,-54.27349
2022-03-26 02:34:01+00:00,99.0,3.45,117.0,6.88,12.33,47.59359,-54.27349
2022-03-26 02:44:01+00:00,98.0,4.3,103.0,9.2,12.33,47.59359,-54.27349
2022-03-26 02:54:01+00:00,113.0,1.48,86.0,8.61,12.33,47.59359,-54.27349
2022-03-26 03:04:01+00:00,106.0,4.88,103.0,9.92,12.33,47.59359,-54.27349
2022-03-26 03:14:00+00:00,105.0,7.06,117.0,11.64,12.33,47.59359,-54.27349
2022-03-26 03:24:00+00:00,99.0,6.73,104.0,10.79,12.33,47.59359,-54.27349
2022-03-26 03:34:00+00:00,94.0,6.57,103.0,10.97,12.33,47.59359,-54.27349
2022-03-26 03:44:00+00:00,104.0,6.51,85.0,10.28,12.33,47.59359,-54.27349
2022-03-26 03:54:00+00:00,115.0,8.68,119.0,11.31,12.33,47.59359,-54.27349
2022-03-26 04:04:00+00:00,124.0,6.52,115.0,9.85,12.33,47.59359,-54.27349
2022-03-26 04:14:01+00:00,121.0,7.14,118.0,10.88,12.33,47.59359,-54.27349
2022-03-26 04:24:01+00:00,111.0,4.41,104.0,9.79,12.33,47.59359,-54.27349
2022-03-26 04:34:01+00:00,98.0,3.94,75.0,9.83,12.33,47.59359,-54.27349
2022-03-26 04:44:01+00:00,109.0,4.39,114.0,10.11,12.33,47.59359,-54.27349
2022-03-26 04:54:01+00:00,101.0,6.72,112.0,10.5,12.33,47.59359,-54.27349
2022-03-26 05:04:01+00:00,99.0,3.08,91.0,9.29,12.33,47.59359,-54.27349
2022-03-26 05:14:01+00:00,102.0,2.87,91.0,9.24,12.33,47.59359,-54.27349
2022-03-26 05:24:01+00:00,89.0,6.58,85.0,10.31,12.33,47.59359,-54.27349
2022-03-26 05:34:01+00:00,98.0,5.23,83.0,10.13,12.33,47.59359,-54.27349
2022-03-26 05:44:01+00:00,92.0,2.31,102.0,9.51,12.33,47.59359,-54.27349
2022-03-26 05:54:01+00:00,98.0,3.91,100.0,9.29,12.33,47.59359,-54.27349
2022-03-26 06:04:01+00:00,94.0,7.62,111.0,10.96,12.33,47.59359,-54.27349
2022-03-26 06:14:00+00:00,97.0,6.17,112.0,10.53,12.25,47.59359,-54.27349
2022-03-26 06:24:00+00:00,95.0,6.44,85.0,10.52,12.25,47.59359,-54.27349
2022-03-26 06:34:00+00:00,98.0,6.51,108.0,10.69,12.25,47.59359,-54.27349
2022-03-26 06:44:00+00:00,99.0,6.84,96.0,10.41,12.25,47.59359,-54.27349
2022-03-26 06:54:00+00:00,96.0,6.38,114.0,10.74,12.25,47.59359,-54.27349
2022-03-26 07:04:00+00:00,100.0,7.73,103.0,10.51,12.25,47.59359,-54.27349
2022-03-26 07:14:00+00:00,103.0,6.78,78.0,11.53,12.25,47.59359,-54.27349
2022-03-26 07:24:00+00:00,105.0,7.67,130.0,11.73,12.25,47.59359,-54.27349
2022-03-26 07:34:00+00:00,96.0,8.6,109.0,11.81,12.25,47.59359,-54.27349
2022-03-26 07:44:00+00:00,85.0,6.98,81.0,10.35,12.25,47.59359,-54.27349
2022-03-26 07:54:00+00:00,86.0,7.23,68.0,10.8,12.25,47.59359,-54.27349
2022-03-26 08:04:00+00:00,90.0,7.37,110.0,10.27,12.25,47.59359,-54.27349
2022-03-26 08:14:01+00:00,102.0,7.65,114.0,10.5,12.17,47.59359,-54.27349
2022-03-26 08:24:01+00:00,101.0,6.99,115.0,11.18,12.17,47.59359,-54.27349
2022-03-26 08:34:01+00:00,91.0,7.52,124.0,11.21,12.17,47.59359,-54.27349
2022-03-26 08:44:01+00:00,94.0,7.74,123.0,11.83,12.17,47.59359,-54.27349
2022-03-26 08:54:01+00:00,101.0,8.1,121.0,10.99,12.17,47.59359,-54.27349
2022-03-26 09:04:01+00:00,101.0,8.26,90.0,11.25,12.17,47.59359,-54.27349
2022-03-26 11:14:00+00:00,315.0,0.01,82.0,0.0,12.25,47.59359,-54.27349
2022-03-26 11:24:00+00:00,315.0,0.01,82.0,0.0,12.25,47.59359,-54.27349
2022-03-26 11:34:00+00:00,315.0,0.01,82.0,0.0,12.25,47.59359,-54.27349
2022-03-26 11:44:00+00:00,315.0,0.01,82.0,0.0,12.25,47.59359,-54.27349
2022-03-26 11:54:00+00:00,315.0,0.01,82.0,0.0,12.25,47.59359,-54.27349
2022-03-26 12:04:00+00:00,315.0,0.01,82.0,0.0,12.25,47.59359,-54.27349
2022-03-26 12:14:00+00:00,315.0,0.01,82.0,0.0,12.73,47.59359,-54.27349
2022-03-26 12:24:00+00:00,315.0,0.01,82.0,0.0,12.73,47.59359,-54.27349
2022-03-26 12:34:00+00:00,74.0,9.39,63.0,11.86,12.73,47.59359,-54.27349
2022-03-26 12:44:00+00:00,83.0,5.63,68.0,9.77,12.73,47.59359,-54.27349
2022-03-26 12:54:00+00:00,84.0,6.6,77.0,10.52,12.73,47.59359,-54.27349
2022-03-26 13:04:00+00:00,315.0,0.01,95.0,0.0,12.73,47.59359,-54.27349
2022-03-26 13:14:00+00:00,315.0,0.01,95.0,0.0,13.05,47.59359,-54.27349
2022-03-26 13:24:00+00:00,315.0,0.01,95.0,0.0,13.05,47.59359,-54.27349
2022-03-26 13:34:00+00:00,315.0,0.01,95.0,0.0,13.05,47.59359,-54.27349
2022-03-26 13:44:00+00:00,64.0,2.1,93.0,8.96,13.05,47.59359,-54.27349
2022-03-26 13:54:00+00:00,92.0,2.98,88.0,9.46,13.05,47.59359,-54.27349
2022-03-26 14:04:00+00:00,128.0,1.52,126.0,4.85,13.05,47.59359,-54.27349
2022-03-26 14:14:01+00:00,122.0,2.54,100.0,9.1,13.37,47.59359,-54.27349
2022-03-26 14:24:01+00:00,315.0,0.01,163.0,0.0,13.37,47.59359,-54.27349
2022-03-26 14:34:01+00:00,315.0,0.01,163.0,0.0,13.37,47.59359,-54.27349
2022-03-26 14:44:01+00:00,315.0,0.01,163.0,0.0,13.37,47.59359,-54.27349
2022-03-26 14:54:01+00:00,315.0,0.01,163.0,0.0,13.37,47.59359,-54.27349
2022-03-26 15:04:01+00:00,103.0,2.86,103.0,9.3,13.37,47.59359,-54.27349
2022-03-26 15:14:01+00:00,90.0,6.23,85.0,10.42,13.84,47.59359,-54.27349
2022-03-26 15:24:01+00:00,123.0,1.16,130.0,5.05,13.84,47.59359,-54.27349
2022-03-26 15:34:01+00:00,241.0,1.75,207.0,3.04,13.84,47.59359,-54.27349
2022-03-26 15:44:01+00:00,283.0,0.77,99.0,3.62,13.84,47.59359,-54.27349
2022-03-26 15:54:01+00:00,149.0,0.88,124.0,4.84,13.84,47.59359,-54.27349
2022-03-26 16:04:01+00:00,311.0,1.23,288.0,2.38,13.84,47.59359,-54.27349
2022-03-26 16:14:01+00:00,264.0,1.15,237.0,2.35,13.84,47.59359,-54.27349
2022-03-26 16:24:01+00:00,335.0,0.82,59.0,3.5,13.84,47.59359,-54.27349
2022-03-26 16:34:01+00:00,297.0,1.56,321.0,2.82,13.84,47.59359,-54.27349
2022-03-26 16:44:01+00:00,303.0,1.7,299.0,2.37,13.84,47.59359,-54.27349
2022-03-26 16:54:01+00:00,300.0,1.69,307.0,2.2,13.84,47.59359,-54.27349
2022-03-26 17:04:01+00:00,306.0,2.27,305.0,2.55,13.84,47.59359,-54.27349
2022-03-26 17:14:01+00:00,311.0,2.57,309.0,2.92,13.76,47.59359,-54.27349
2022-03-26 17:24:01+00:00,311.0,2.43,309.0,2.79,13.76,47.59359,-54.27349
2022-03-26 17:34:01+00:00,296.0,2.61,296.0,2.77,13.76,47.59359,-54.27349
2022-03-26 17:44:01+00:00,311.0,2.76,307.0,3.2,13.76,47.59359,-54.27349
2022-03-26 17:54:01+00:00,342.0,1.96,308.0,3.22,13.76,47.59359,-54.27349
2022-03-26 18:04:01+00:00,328.0,2.97,317.0,3.76,13.76,47.59359,-54.27349
2022-03-26 18:14:00+00:00,333.0,3.31,319.0,4.14,13.76,47.59359,-54.27349
2022-03-26 18:24:00+00:00,3.0,2.97,1.0,3.25,13.76,47.59359,-54.27349
2022-03-26 18:34:00+00:00,2.0,2.88,335.0,3.36,13.76,47.59359,-54.27349
2022-03-26 18:44:00+00:00,354.0,2.57,320.0,3.76,13.76,47.59359,-54.27349
2022-03-26 18:54:00+00:00,3.0,2.95,5.0,3.38,13.76,47.59359,-54.27349
2022-03-26 19:04:00+00:00,9.0,2.55,318.0,3.24,13.76,47.59359,-54.27349
2022-03-26 19:14:01+00:00,19.0,1.92,19.0,2.27,13.76,47.59359,-54.27349
2022-03-26 19:24:01+00:00,38.0,1.35,39.0,1.61,13.76,47.59359,-54.27349
2022-03-26 19:34:01+00:00,99.0,0.56,77.0,0.82,13.76,47.59359,-54.27349
2022-03-26 19:44:01+00:00,347.0,1.26,344.0,1.42,13.76,47.59359,-54.27349
2022-03-26 19:54:01+00:00,317.0,1.06,315.0,1.27,13.76,47.59359,-54.27349
2022-03-26 20:04:01+00:00,292.0,0.96,287.0,1.09,13.76,47.59359,-54.27349
2022-03-26 20:14:01+00:00,263.0,0.82,257.0,1.04,13.53,47.59359,-54.27349
2022-03-26 20:24:01+00:00,193.0,0.64,184.0,0.95,13.53,47.59359,-54.27349
2022-03-26 20:34:01+00:00,95.0,0.58,82.0,0.88,13.53,47.59359,-54.27349
2022-03-26 20:44:01+00:00,219.0,1.08,220.0,1.29,13.53,47.59359,-54.27349
2022-03-26 20:54:01+00:00,282.0,4.31,285.0,4.65,13.53,47.59359,-54.27349
2022-03-26 21:04:01+00:00,284.0,3.59,285.0,3.99,13.53,47.59359,-54.27349
2022-03-26 21:14:01+00:00,294.0,4.38,302.0,5.03,13.44,47.59359,-54.27349
2022-03-26 21:24:01+00:00,305.0,4.46,303.0,5.34,13.44,47.59359,-54.27349
2022-03-26 21:34:01+00:00,295.0,5.17,289.0,8.08,13.44,47.59359,-54.27349
2022-03-26 21:44:01+00:00,285.0,4.67,284.0,5.79,13.44,47.59359,-54.27349
2022-03-26 21:54:01+00:00,280.0,5.17,280.0,5.98,13.44,47.59359,-54.27349
2022-03-26 22:04:01+00:00,282.0,5.51,284.0,5.95,13.44,47.59359,-54.27349
2022-03-26 22:14:01+00:00,279.0,5.22,289.0,6.45,12.81,47.59359,-54.27349
2022-03-26 22:24:01+00:00,276.0,4.95,261.0,6.8,12.81,47.59359,-54.27349
2022-03-26 22:34:01+00:00,296.0,6.8,296.0,7.46,12.81,47.59359,-54.27349
2022-03-26 22:44:01+00:00,287.0,6.53,292.0,7.52,12.81,47.59359,-54.27349
2022-03-26 22:54:01+00:00,299.0,5.53,299.0,6.59,12.81,47.59359,-54.27349
2022-03-26 23:04:01+00:00,287.0,5.37,286.0,6.45,12.81,47.59359,-54.27349
2022-03-26 23:14:00+00:00,298.0,4.82,298.0,6.2,12.49,47.59359,-54.27349
2022-03-26 23:24:00+00:00,299.0,4.44,302.0,5.03,12.49,47.59359,-54.27349
2022-03-26 23:34:00+00:00,294.0,3.63,297.0,4.41,12.49,47.59359,-54.27349
2022-03-26 23:44:00+00:00,285.0,5.07,286.0,5.84,12.49,47.59359,-54.27349
2022-03-26 23:54:00+00:00,277.0,3.66,270.0,4.41,12.49,47.59359,-54.27349
